Pagina principale
METAR-TAF:

METAR-TAF

Aeroporti :

Altenstadt, Germania

latitudine: 47-50N, longitudine: 010-52E, altezza: 739 m

Osservazione

Il bollettino è stato emesso 11 minuti fa, alle 20:20 UTC
Vento 13 kt da nord-ovest
Temperature 9°C
Umidità 93%
Pressione 1019 hPa
Visibilità 10 km o più

METAR: ETHA 242020Z AUTO 31013KT 9999 // ////// 09/08 Q1019 ///

Ora: 22:31 (20:31 UTC)

Previsione

Il bollettino è stato emesso 16 ore e 11 minuti fa, alle 04:20 UTC
Previsione valida dal 24 alle 05 UTC al 24 alle 14 UTC
Vento 5 kt da ovest/sud-ovest
Visibilità 10 km o più
Poco nuvoloso ad un'altezza di 3000 ft
Nubi sparse ad un'altezza di 6000 ft
Nuvoloso ad un'altezza di 22000 ft

TAF: ETHA 240420Z 2405/2414 25005KT 9999 NSW FEW030 SCT060 BKN220

Osservazioni e previsioni meteorologiche di più di 4000 aeroporti (messaggi METAR e TAF).

Le stazioni disponibili sono rappresentate dai dischi gialli e rossi sulla carta.

Puntare il mouse per vedere il nome della stazione.

Clicca sopra per visualizzare le osservazioni e previsioni meteorologiche.

Per cambiare la mappa : fare clic sui pulsanti verdi con una croce nera per ingrandire, il pulsante verde con un trattino per diminuire, o sulla freccia verde per le mappe adiacenti.


METAR-TAF: